Location: Melbourne
(37.8170°S, 144.9670°E)
Time: 16:46:25
(UTC+11:00)

Transit 2A - All Passes

Search period start: 27 January 2015 00:00
Search period end: 06 February 2015 00:00
Orbit: 593 x 969 km, 66.7° (Epoch: 25 January)

Date Brightness Start Highest point End Pass type
(mag) Time Alt. Az. Time Alt. Az. Time Alt. Az.
27 Jan - 01:36:46 10° S 01:39:45 18° SE 01:42:51 10° E visible
27 Jan - 03:19:03 10° SW 03:23:10 41° WNW 03:27:18 10° N visible
27 Jan - 16:14:22 10° NNE 16:18:53 26° ENE 16:23:11 10° SE daylight
27 Jan - 17:56:53 10° NW 18:02:01 38° SW 18:06:39 10° SSE daylight
28 Jan - 01:04:01 10° SSE 01:05:48 12° SE 01:07:46 10° ESE visible
28 Jan - 02:45:12 10° SSW 02:49:32 68° WNW 02:53:54 10° NNE visible
28 Jan - 15:41:48 10° NNE 15:45:16 18° ENE 15:48:46 10° ESE daylight
28 Jan - 17:22:48 10° NW 17:28:15 56° WSW 17:33:10 10° SSE daylight
29 Jan - 02:11:30 10° SSW 02:15:51 75° ESE 02:20:16 10° NNE visible
29 Jan - 15:10:19 10° ENE 15:11:40 11° ENE 15:13:21 10° E daylight
29 Jan - 16:48:58 10° NNW 16:54:32 83° WSW 16:59:34 10° SSE daylight
29 Jan - 18:36:22 10° WSW 18:38:27 12° SW 18:40:14 10° SSW daylight
30 Jan - 01:37:56 10° SSW 01:42:08 46° ESE 01:46:23 10° NE visible
30 Jan - 03:22:34 10° WSW 03:24:57 14° WNW 03:27:09 10° NW visible
30 Jan - 16:15:21 10° NNW 16:20:51 67° ENE 16:25:51 10° SE daylight
30 Jan - 18:01:00 10° W 18:04:28 17° SW 18:07:36 10° S daylight
31 Jan - 01:04:29 10° S 01:08:21 30° SE 01:12:15 10° ENE visible
31 Jan - 02:47:56 10° WSW 02:51:23 22° WNW 02:54:46 10° NNW visible
31 Jan - 15:41:58 10° N 15:47:12 44° ENE 15:52:00 10° SE daylight
31 Jan - 17:26:14 10° WNW 17:30:33 24° SW 17:34:30 10° S daylight
01 Feb - 00:31:14 10° S 00:34:29 20° SE 00:37:50 10° E visible
01 Feb - 02:13:47 10° SW 02:17:46 35° WNW 02:21:49 10° N visible
01 Feb - 15:08:53 10° N 15:13:33 29° ENE 15:17:58 10° SE daylight
01 Feb - 16:51:50 10° WNW 16:56:44 34° SW 17:01:11 10° S daylight
01 Feb - 23:58:17 10° SSE 00:00:33 14° SE 00:02:59 10° E visible
02 Feb - 01:39:52 10° SW 01:44:09 58° WNW 01:48:31 10° NNE visible
02 Feb - 14:36:09 10° NNE 14:39:56 20° ENE 14:43:40 10° ESE daylight
02 Feb - 16:17:40 10° NW 16:22:57 49° WSW 16:27:44 10° SSE daylight
03 Feb - 01:06:08 10° SSW 01:10:30 87° ESE 01:14:57 10° NNE visible
03 Feb - 14:04:10 10° NE 14:06:19 13° ENE 14:08:43 10° E daylight
03 Feb - 15:43:45 10° NNW 15:49:13 73° WSW 15:54:10 10° SSE daylight
03 Feb - 17:32:17 10° SW 17:33:14 10° SW 17:33:55 10° SW daylight
04 Feb - 00:32:31 10° SSW 00:36:48 54° ESE 00:41:09 10° NE visible
04 Feb - 02:17:45 10° W 02:19:34 12° WNW 02:21:09 10° NW visible
04 Feb - 15:10:03 10° NNW 15:15:32 76° ENE 15:20:29 10° SSE daylight
04 Feb - 16:56:14 10° W 16:59:14 15° SW 17:01:55 10° SSW daylight
04 Feb - 23:59:02 10° S 00:03:01 34° SE 00:07:06 10° ENE visible
05 Feb - 01:42:47 10° WSW 01:45:59 19° WNW 01:49:07 10° NNW visible
05 Feb - 14:36:36 10° N 14:41:52 50° ENE 14:46:41 10° SE daylight
05 Feb - 16:21:18 10° W 16:25:18 21° SW 16:28:56 10° S daylight
05 Feb - 23:25:43 10° S 23:29:11 23° SE 23:32:46 10° ENE visible
